Startpagina
METAR-TAF:

METAR-TAF

Vliegvelden :

Productieplatform

Euro, Nederland

breedte: 51-59-52N, lengte: 3-16-30E, hoogte: 18 m

Actueel weer

Dit bericht is 27 minuten geleden gemaakt, om 18:25 UTC
Wind 24 kt uit het noordnoordoosten
Temperatuur 14°C
Vochtigheid 77%
Druk 1014 hPa
Zicht 10 km of meer

METAR: EHSA 211825Z AUTO 02024KT 9999 ///////// 14/10 Q1014 W15/H17

Tijdstip: 20:52 (18:52 UTC)


TAF: ontbreekt

Waarnemingen en weersverwachtingen van meer dan 4000 vliegvelden (METAR en TAF).

De beschikbare stations zijn de gele en rode punten op de kaart.

Ga met uw muis naar het station om de naam te zien.

Klik dan om waarnemingen en weersverwachtingen te zien.

kaart wijzigen: klik op de groene knoppen met een zwart kruis om in te zoomen, op de groene knop met een streepje om uit te zoomen of op de groene pijlen voor aangrenzende kaarten.


METAR-TAF: